Cody, WY

10:07 AM MDT on April 28, 2017 (GMT -0600)
Yellowstone Regional

Weather History for KCOD - August, 2014

Change the Weather History Date:

Monday, August 11, 2014

  Actual Average Record
Temperature  
Mean Temperature 70 °F -  
Max Temperature 84 °F 84 °F 96 °F (1919)
Min Temperature 57 °F 54 °F 40 °F (1947)
Cooling Degree Days 6    
Growing Degree Days 20 (Base 50)    
Moisture  
Dew Point 47 °F    
Average Humidity 41    
Maximum Humidity 63    
Minimum Humidity 27    
Precipitation  
Precipitation 0.00 in - - ()
Sea Level Pressure  
Sea Level Pressure 30.27 in    
Wind  
Wind Speed 5 mph (NNW)    
Max Wind Speed 14 mph    
Max Gust Speed 17 mph    
Visibility 10 miles    
Events      
Averages and records for this station are not official NWS values.
T = Trace of Precipitation, MM = Missing Value Source: NWS Daily Summary

Daily Weather History Graph

Daily Weather History Graph

Search for Another Location

Airport or City:

Trip Planner

Search our weather history database for the weather conditions in past years. The results will help you decide how hot, cold, wet, or windy it might be!

Date:

Astronomy

Aug. 11, 2014 Rise Set
Actual Time 6:14 AM MDT 8:27 PM MDT
Civil Twilight 5:42 AM MDT 8:59 PM MDT
Nautical Twilight 5:02 AM MDT 9:38 PM MDT
Astronomical Twilight 4:18 AM MDT 10:22 PM MDT
Moon 8:51 PM MDT (8/11) 7:28 AM MDT (8/11)
Length of Visible Light 15h 17m
Length of Day
14h 13m
Full, 98% of the Moon is Illuminated
Aug 11
Full
Aug 17
Last Quarter
Aug 25
New
Sep 2
First Quarter
Sep 8
Full

Hourly Weather History & Observations

Time (MDT) Temp. Heat Index Dew Point Humidity Pressure Visibility Wind Dir Wind Speed Gust Speed Precip Events Conditions
12:15 AM 66.2 °F - 42.8 °F 43% 30.28 in 10.0 mi SSW 3.5 mph - N/A   Clear
12:35 AM 64.4 °F - 42.8 °F 45% 30.29 in 10.0 mi South 3.5 mph - N/A   Clear
12:55 AM 66.2 °F - 44.6 °F 46% 30.29 in 10.0 mi SW 4.6 mph - N/A   Clear
1:15 AM 66.2 °F - 44.6 °F 46% 30.28 in 10.0 mi SW 6.9 mph - N/A   Clear
1:35 AM 66.2 °F - 46.4 °F 49% 30.28 in 10.0 mi SW 8.1 mph - N/A   Clear
1:55 AM 66.2 °F - 46.4 °F 49% 30.29 in 10.0 mi SW 4.6 mph - N/A   Clear
2:15 AM 66.2 °F - 44.6 °F 46% 30.29 in 10.0 mi South 3.5 mph - N/A   Clear
2:35 AM 66.2 °F - 44.6 °F 46% 30.28 in 10.0 mi SW 4.6 mph - N/A   Clear
2:55 AM 66.2 °F - 44.6 °F 46% 30.28 in 10.0 mi Calm Calm - N/A   Clear
3:15 AM 66.2 °F - 44.6 °F 46% 30.28 in 10.0 mi SW 4.6 mph - N/A   Clear
3:35 AM 66.2 °F - 44.6 °F 46% 30.28 in 10.0 mi SW 8.1 mph - N/A   Clear
3:55 AM 66.2 °F - 44.6 °F 46% 30.28 in 10.0 mi SW 6.9 mph - N/A   Clear
4:15 AM 64.4 °F - 44.6 °F 49% 30.28 in 10.0 mi SW 5.8 mph - N/A   Clear
4:35 AM 64.4 °F - 44.6 °F 49% 30.28 in 10.0 mi WSW 5.8 mph - N/A   Clear
4:55 AM 64.4 °F - 44.6 °F 49% 30.28 in 10.0 mi SW 5.8 mph - N/A   Clear
5:15 AM 57.2 °F - 44.6 °F 63% 30.28 in 10.0 mi Calm Calm - N/A   Clear
5:35 AM 59.0 °F - 42.8 °F 55% 30.29 in 10.0 mi SW 5.8 mph - N/A   Clear
5:55 AM 57.2 °F - 44.6 °F 63% 30.29 in 10.0 mi Calm Calm - N/A   Clear
6:15 AM 57.2 °F - 42.8 °F 59% 30.29 in 10.0 mi West 5.8 mph - N/A   Clear
6:35 AM 59.0 °F - 42.8 °F 55% 30.30 in 10.0 mi Calm Calm - N/A   Clear
6:55 AM 62.6 °F - 42.8 °F 48% 30.30 in 10.0 mi WSW 4.6 mph - N/A   Clear
7:15 AM 62.6 °F - 44.6 °F 52% 30.30 in 10.0 mi South 3.5 mph - N/A   Clear
7:35 AM 64.4 °F - 44.6 °F 49% 30.30 in 10.0 mi Calm Calm - N/A   Clear
7:55 AM 66.2 °F - 46.4 °F 49% 30.31 in 10.0 mi Calm Calm - N/A   Clear
8:15 AM 68.0 °F - 51.8 °F 56% 30.31 in 10.0 mi Calm Calm - N/A   Clear
8:35 AM 69.8 °F - 48.2 °F 46% 30.31 in 10.0 mi Calm Calm - N/A   Clear
8:55 AM 71.6 °F - 48.2 °F 43% 30.31 in 10.0 mi Calm Calm - N/A   Clear
9:15 AM - - - N/A% 30.31 in 10.0 mi Calm Calm - N/A   Clear
9:35 AM 73.4 °F - 48.2 °F 41% 30.31 in 10.0 mi NE 5.8 mph - N/A   Clear
9:55 AM 71.6 °F - 48.2 °F 43% 30.31 in 10.0 mi NNE 6.9 mph - N/A   Clear
10:15 AM 73.4 °F - 46.4 °F 38% 30.31 in 10.0 mi NE 5.8 mph - N/A   Clear
10:35 AM 73.4 °F - 51.8 °F 47% 30.31 in 10.0 mi NNE 6.9 mph - N/A   Clear
10:55 AM 75.2 °F - 51.8 °F 44% 30.31 in 10.0 mi NNE 9.2 mph - N/A   Clear
11:15 AM 75.2 °F - 53.6 °F 47% 30.31 in 10.0 mi NNE 8.1 mph - N/A   Clear
11:35 AM 77.0 °F - 51.8 °F 41% 30.31 in 10.0 mi NE 8.1 mph - N/A   Clear
11:55 AM 77.0 °F - 51.8 °F 41% 30.30 in 10.0 mi NNE 8.1 mph - N/A   Clear
12:15 PM 78.8 °F - 51.8 °F 39% 30.30 in 10.0 mi NE 5.8 mph - N/A   Clear
12:35 PM 78.8 °F - 51.8 °F 39% 30.29 in 10.0 mi North 8.1 mph - N/A   Clear
12:55 PM 80.6 °F - 51.8 °F 37% 30.29 in 10.0 mi North 6.9 mph - N/A   Clear
1:15 PM 80.6 °F 80.3 °F 53.6 °F 39% 30.28 in 10.0 mi NE 8.1 mph - N/A   Clear
1:35 PM 80.6 °F - 51.8 °F 37% 30.28 in 10.0 mi NNE 12.7 mph - N/A   Clear
1:55 PM 82.4 °F 81.4 °F 53.6 °F 37% 30.27 in 10.0 mi NNE 10.4 mph 17.3 mph N/A   Clear
2:15 PM 80.6 °F 80.3 °F 53.6 °F 39% 30.27 in 10.0 mi North 13.8 mph 17.3 mph N/A   Clear
2:35 PM 82.4 °F - 51.8 °F 35% 30.26 in 10.0 mi NNE 9.2 mph - N/A   Clear
2:55 PM 82.4 °F 81.4 °F 53.6 °F 37% 30.25 in 10.0 mi NNW 12.7 mph - N/A   Clear
3:15 PM 82.4 °F 81.4 °F 53.6 °F 37% 30.25 in 10.0 mi NNE 12.7 mph 16.1 mph N/A   Clear
3:35 PM 82.4 °F - 51.8 °F 35% 30.24 in 10.0 mi North 11.5 mph 17.3 mph N/A   Clear
3:55 PM 84.2 °F - 51.8 °F 33% 30.24 in 10.0 mi NNE 12.7 mph 16.1 mph N/A   Clear
4:35 PM 84.2 °F - 50.0 °F 30% 30.23 in 10.0 mi North 8.1 mph - N/A   Clear
4:55 PM 84.2 °F - 48.2 °F 29% 30.23 in 10.0 mi NE 9.2 mph - N/A   Clear
5:15 PM 82.4 °F - 51.8 °F 35% 30.23 in 10.0 mi North 9.2 mph - N/A   Clear
5:35 PM 82.4 °F - 50.0 °F 32% 30.22 in 10.0 mi NNE 9.2 mph - N/A   Clear
5:55 PM 84.2 °F - 46.4 °F 27% 30.22 in 10.0 mi NNE 10.4 mph - N/A   Clear
6:15 PM 82.4 °F - 48.2 °F 30% 30.22 in 10.0 mi North 11.5 mph - N/A   Clear
6:35 PM 82.4 °F - 46.4 °F 28% 30.21 in 10.0 mi North 6.9 mph - N/A   Clear
6:55 PM 80.6 °F - 48.2 °F 32% 30.21 in 10.0 mi NNE 8.1 mph - N/A   Clear
7:15 PM 82.4 °F - 46.4 °F 28% 30.21 in 10.0 mi NNE 6.9 mph - N/A   Clear
7:35 PM 80.6 °F - 46.4 °F 30% 30.22 in 10.0 mi North 5.8 mph - N/A   Clear
7:55 PM 80.6 °F - 44.6 °F 28% 30.22 in 10.0 mi North 4.6 mph - N/A   Partly Cloudy
8:15 PM 78.8 °F - 44.6 °F 30% 30.22 in 10.0 mi North 3.5 mph - N/A   Clear
8:35 PM 77.0 °F - 46.4 °F 34% 30.23 in 10.0 mi West 5.8 mph - N/A   Clear
8:55 PM 77.0 °F - 42.8 °F 29% 30.23 in 10.0 mi WNW 4.6 mph - N/A   Clear
9:15 PM 75.2 °F - 42.8 °F 31% 30.24 in 10.0 mi WNW 4.6 mph - N/A   Clear
9:35 PM 75.2 °F - 42.8 °F 31% 30.24 in 10.0 mi WNW 4.6 mph - N/A   Clear
9:55 PM 75.2 °F - 41.0 °F 29% 30.25 in 8.0 mi Calm Calm - N/A   Clear
10:15 PM 73.4 °F - 42.8 °F 33% 30.25 in 10.0 mi NW 4.6 mph - N/A   Clear
10:35 PM 73.4 °F - 42.8 °F 33% 30.24 in 10.0 mi Calm Calm - N/A   Clear
10:55 PM 73.4 °F - 42.8 °F 33% 30.25 in 10.0 mi WSW 3.5 mph - N/A   Clear
11:35 PM 69.8 °F - 42.8 °F 38% 30.25 in 10.0 mi Calm Calm - N/A   Clear
11:55 PM 69.8 °F - 42.8 °F 38% 30.25 in 10.0 mi SSW 3.5 mph - N/A   Clear